Regional Weather Roundup
Issued by NWS

Home | Current Version | Previous Version | Graphics & Text | Print | Product List | Glossary On
Versions: 1 2 3 4 5 6 7 8 9 10 11 12 13 14 15 16 17 18 19 20 21 22 23 24 25 26 27 28 29 30 31 32 33 34 35 36 37 38 39 40 41 42 43 44 45 46 47 48 49 50
000
ASUS45 KABQ 270701
RWRNM
WEATHER ROUNDUP FOR NEW MEXICO
NATIONAL WEATHER SERVICE ALBUQUERQUE NM
100 AM MDT MON APR 27 2015

NOTE: "FAIR" MEANS FEW OR NO CLOUDS BELOW 12,000 FEET AGL WITH NO
       SIGNIFICANT WEATHER OR OBSTRUCTIONS TO VISION.

      THIS PRODUCT IS RELEASED AS TWO VERSIONS.  ONE VERSION NEAR
      THE TOP OF THE HOUR CONTAINING PRELIMINARY DATA FROM ALBUQUERQUE
      AND OTHER STATIONS.  A FINAL VERSION WITH ADDITIONAL DATA IS
      ISSUED ABOUT 10 MINUTES AFTER THE HOUR.

NMZ501-503-504-510>518-270800-
NORTHWEST PLATEAU/NORTHCENTRAL MOUNTAINS

CITY           SKY/WX    TMP DP  RH WIND       PRES   REMARKS
FARMINGTON     CLOUDY    44  42  93 NE3       29.89R
LOS ALAMOS     LGT RAIN  37  37 100 N9G17     29.96R WCI  30
SANTA FE       LGT RAIN  40  37  89 N5        29.92R FOG
TAOS           CLOUDY    34  27  75 CALM      29.96S
ANGEL FIRE     LGT SNOW  32  32  99 N8          N/A  WCI  25

$$
NMZ402-403-502-505>509-270800-
WESTCENTRAL MOUNTAINS/SOUTHWEST MOUNTAINS

CITY           SKY/WX    TMP DP  RH WIND       PRES   REMARKS
GALLUP         LGT RAIN  43  39  86 CALM      29.92F
GRANTS         LGT RAIN  40  39  97 NW6       29.93S
SILVER CITY      N/A     37  36  93 NW10      29.93S WCI  30

$$
NMZ407-409-411-412-270800-
SOUTHERN DESERTS

CITY           SKY/WX    TMP DP  RH WIND       PRES   REMARKS
LORDSBURG      FAIR      41  37  87 W7        29.93R
DEMING         PTCLDY    45  39  79 W7        29.90R
LAS CRUCES     CLEAR     46  37  73 W10       29.88R
ALAMOGORDO     CLOUDY    46  37  71 CALM      29.84S
T OR C         PTCLDY    49  36  61 W10       29.85S

$$
NMZ519>523-270800-
CENTRAL VALLEYS/CENTRAL HIGHLANDS

CITY           SKY/WX    TMP DP  RH WIND       PRES   REMARKS
ALBUQUERQUE    LGT RAIN  45  42  89 E14       29.91R
DOUBLE EAGLE   MOCLDY    40  38  91 N7        29.91R
MORIARTY ARPT  LGT RAIN  38  35  89 NE15      29.92S WCI  29
CLINES CORNERS LGT SNOW  33  32  96 NE9       29.90R FOG     WCI  25
BELEN          CLOUDY    44  41  90 SW3       29.90R
SOCORRO        DRIZZLE   44  43  95 N7        29.89R

$$
NMZ524>526-539-540-270800-
SOUTHCENTRAL MOUNTAINS

CITY           SKY/WX    TMP DP  RH WIND       PRES   REMARKS
RUIDOSO        NOT AVBL

$$
NMZ527>531-270800-
NORTHEAST HIGHLANDS/NORTHEAST PLAINS

CITY           SKY/WX    TMP DP  RH WIND       PRES   REMARKS
LAS VEGAS      MIX PCPN  32  32 100 N9        29.94R WCI  24
RATON          CLOUDY    43  35  73 NE15      29.96R
CLAYTON        LGT RAIN  44  43  96 NE21G28   29.93S FOG

$$
NMZ532>537-270800-
EASTCENTRAL PLAINS

CITY           SKY/WX    TMP DP  RH WIND       PRES   REMARKS
TUCUMCARI      LGT RAIN  48  45  89 NE15      29.87R
CANNON AFB     NOT AVBL
CLOVIS AIRPORT MOCLDY    46  43  87 E18       29.84R

$$
NMZ028-029-538-270800-
SOUTHEAST PLAINS

CITY           SKY/WX    TMP DP  RH WIND       PRES   REMARKS
ROSWELL        MOCLDY    56  40  55 NW10      29.77F
ARTESIA        PTCLDY    54  37  54 W8        29.79S
CARLSBAD       CLEAR     51  33  50 NW7       29.77F
HOBBS          CLEAR     46  39  76 CALM      29.79S


$$


USA.gov is the U.S. government's official web portal to all federal, state and local government web resources and services.